Total_Precipitation_Accumulation
2.23 2.03 1.89 1.88 2.03 1.75 1.66 1.73 1.80 1.90 2.15 2.42 2.35 1.85 1.59 1.57 1.85 2.18 1.86 1.02 1.81 2.30 0.95 0.18 0.16 0.21 0.20 0.29 0.48 0.31 0.66 0.85 1.01 1.56 1.26 0.73 0.56 0.27 0.24 0.11 0.04 0.11 0.22 0.33 0.52 1.07 0.61 0.10 0.04 0.10 0.13 0.04 0.01 0.00
2.02 2.15 2.11 2.11 2.02 1.78 1.67 1.74 1.91 1.92 2.06 2.34 2.40 2.13 2.04 1.88 1.91 2.38 2.02 1.11 1.48 2.37 1.76 0.34 0.09 0.07 0.11 0.21 0.43 0.74 0.78 0.42 0.59 1.02 1.02 0.82 0.80 0.55 0.25 0.20 0.01 0.08 0.10 0.13 0.16 0.15 0.06 0.05 0.05 0.02 0.01 0.02 0.00 0.01
1.52 1.73 2.03 2.21 2.44 2.41 2.12 1.92 1.74 1.66 1.60 1.83 2.29 2.20 2.25 2.45 2.44 2.67 1.72 1.18 1.84 2.70 1.69 0.68 0.22 0.04 0.03 0.09 0.23 0.80 0.82 0.41 0.54 0.59 1.10 1.17 1.18 0.67 0.52 0.34 0.13 0.06 0.03 0.14 0.17 0.07 0.01 0.01 0.01 0.01 0.01 0.03 0.02 0.06
1.51 1.49 1.72 1.91 2.27 2.55 2.36 2.29 2.26 1.97 1.66 1.56 1.72 2.02 2.14 2.40 2.54 2.74 2.22 1.40 1.64 2.26 1.79 0.59 0.09 0.04 0.03 0.06 0.15 0.31 0.40 0.40 0.54 0.93 1.67 1.66 1.09 0.49 0.32 0.16 0.14 0.06 0.02 0.03 0.06 0.01 0.00 0.00 0.00 0.00 0.00 0.00 0.00 0.01
1.48 1.69 1.66 1.80 1.86 2.15 2.82 2.52 1.95 1.76 1.90 1.88 1.88 1.80 2.02 2.29 2.33 2.17 1.70 1.38 1.19 1.90 1.99 0.56 0.19 0.08 0.06 0.08 0.20 0.30 0.51 0.92 1.30 1.75 2.00 1.20 0.54 0.51 0.48 0.36 0.19 0.01 0.01 0.01 0.04 0.00 0.01 0.00 0.00 0.00 0.00 0.00 0.00 0.00
1.62 1.60 1.97 1.91 1.68 1.61 1.82 2.34 1.94 1.72 1.77 1.95 1.76 2.08 2.21 2.47 3.24 2.46 2.81 2.09 1.24 1.37 2.87 1.48 0.52 0.12 0.14 0.15 0.30 0.41 0.70 1.14 1.76 1.88 1.55 1.03 0.39 0.57 1.01 0.43 0.02 0.00 0.01 0.02 0.02 0.01 0.03 0.02 0.00 0.00 0.00 0.00 0.00 0.00
1.96 2.14 1.98 2.19 1.93 1.56 1.49 1.80 1.78 1.64 1.72 1.58 1.69 2.03 2.34 2.89 3.51 2.61 1.47 1.36 1.45 2.06 3.43 2.36 1.16 0.39 0.36 0.52 0.59 0.78 0.71 1.22 1.45 1.67 1.31 0.79 0.56 1.31 1.64 0.54 0.02 0.01 0.01 0.02 0.02 0.02 0.02 0.04 0.05 0.04 0.04 0.03 0.02 0.02
2.66 2.75 2.88 2.49 2.34 1.72 1.49 1.64 1.34 1.45 1.73 1.74 1.94 2.18 3.03 4.02 4.04 2.77 0.98 0.76 1.46 3.22 3.30 2.76 1.47 0.66 0.80 1.04 0.91 0.97 1.17 1.53 1.72 1.36 0.68 0.46 0.51 0.98 0.93 0.04 0.01 0.02 0.02 0.01 0.01 0.01 0.02 0.02 0.02 0.02 0.02 0.02 0.02 0.03
2.69 2.80 2.63 2.45 2.49 1.74 1.59 1.84 1.45 1.36 1.67 2.19 3.05 4.18 5.21 4.61 3.22 2.05 1.54 1.68 1.94 3.00 3.00 1.88 0.99 0.80 0.85 0.99 1.06 1.12 1.58 1.77 1.46 1.15 0.42 0.50 0.69 0.69 0.14 0.04 0.06 0.08 0.15 0.18 0.19 0.12 0.05 0.02 0.02 0.02 0.02 0.01 0.01 0.02
2.49 2.45 2.10 2.26 2.33 1.96 1.98 1.83 1.53 1.42 2.06 3.32 5.18 5.63 4.77 3.08 1.85 1.94 3.74 4.62 4.56 3.52 2.12 1.08 0.74 0.84 1.00 0.87 0.96 1.08 1.24 1.02 1.11 0.49 0.40 0.75 0.31 0.09 0.09 0.16 0.22 0.25 0.33 0.38 0.54 0.45 0.33 0.21 0.07 0.04 0.07 0.10 0.09 0.08
1.72 1.70 1.44 1.43 1.50 1.55 1.52 1.37 1.40 1.98 3.41 4.58 4.94 3.50 2.50 2.69 2.43 3.68 4.30 3.47 2.57 1.78 0.90 0.57 0.62 0.60 0.55 0.75 0.82 1.05 1.40 0.96 0.99 0.63 0.56 0.49 0.42 0.62 0.45 0.39 0.36 0.29 0.25 0.25 0.33 0.48 0.47 0.38 0.35 0.20 0.15 0.17 0.25 0.24
1.56 1.46 1.27 1.38 1.19 1.23 1.46 1.55 1.75 2.22 2.50 2.73 2.45 2.38 2.85 3.00 3.90 3.92 2.96 1.50 0.73 0.38 0.37 0.75 0.79 0.60 0.63 0.72 1.05 1.02 0.99 0.89 0.82 0.95 1.22 0.59 0.68 0.32 0.40 0.56 0.35 0.24 0.32 0.25 0.25 0.39 0.28 0.25 0.31 0.37 0.26 0.19 0.18 0.26
1.69 1.39 1.31 1.56 1.39 1.38 1.57 2.02 2.22 2.21 2.00 2.47 3.43 3.94 3.92 4.03 3.46 2.17 1.19 0.68 0.37 0.45 0.60 0.65 0.77 0.86 1.04 1.34 1.56 1.07 1.11 0.59 0.38 0.73 0.76 0.57 0.26 0.21 0.34 0.32 0.27 0.37 0.60 0.50 0.28 0.31 0.37 0.37 0.34 0.43 0.42 0.21 0.16 0.15
1.75 1.58 1.65 1.77 1.52 1.33 1.40 2.05 3.01 2.92 2.31 3.37 3.71 3.70 2.73 2.48 1.09 0.61 0.43 0.35 0.26 0.26 0.29 0.36 0.58 0.87 1.17 1.55 1.57 1.34 0.78 0.65 0.87 0.78 0.53 0.29 0.20 0.19 0.15 0.13 0.17 0.18 0.35 0.51 0.52 0.55 0.58 0.66 0.67 0.62 0.63 0.56 0.47 0.32
2.13 1.87 2.00 2.06 1.62 1.52 1.92 2.63 2.58 2.04 2.67 3.34 2.97 2.11 1.40 0.69 0.56 0.53 0.50 0.33 0.26 0.40 0.55 0.74 0.97 0.87 1.05 1.81 1.37 0.90 0.86 0.95 0.87 0.55 0.31 0.15 0.11 0.13 0.08 0.05 0.08 0.15 0.29 0.33 0.28 0.37 0.46 0.58 0.73 0.59 0.51 0.46 0.36 0.31
2.81 3.21 2.99 2.46 1.89 2.14 2.62 3.00 2.96 2.65 3.27 2.90 2.19 1.03 0.39 0.27 0.34 0.38 0.44 0.49 0.47 0.55 0.76 1.16 1.40 1.30 1.04 1.13 1.09 0.79 0.75 0.69 0.55 0.27 0.17 0.14 0.12 0.11 0.06 0.04 0.08 0.22 0.24 0.38 0.51 0.29 0.27 0.42 0.39 0.27 0.23 0.31 0.33 0.30
4.35 4.22 2.74 2.24 2.46 2.73 3.00 3.39 3.65 3.33 2.91 2.58 1.25 0.39 0.31 0.36 0.50 0.53 0.62 0.73 0.77 0.97 1.26 1.49 1.51 0.92 0.99 0.87 0.63 0.40 0.51 0.39 0.29 0.20 0.15 0.13 0.18 0.22 0.15 0.09 0.10 0.18 0.18 0.33 0.57 0.40 0.39 0.57 0.61 0.51 0.35 0.24 0.23 0.29
3.57 2.26 2.06 2.36 2.69 3.10 4.21 4.11 3.59 3.49 2.65 1.16 0.44 0.31 0.28 0.36 0.41 0.51 0.64 0.82 1.11 1.40 1.53 1.75 1.14 0.96 0.57 0.40 0.26 0.22 0.21 0.24 0.27 0.31 0.30 0.26 0.22 0.20 0.19 0.18 0.13 0.21 0.29 0.46 0.68 0.49 0.54 0.64 0.58 0.46 0.45 0.43 0.37 0.39
2.82 2.02 2.26 2.42 2.70 3.24 3.74 3.58 2.93 2.38 0.98 0.40 0.28 0.31 0.32 0.33 0.40 0.52 0.62 0.81 0.89 1.01 1.35 1.68 1.54 0.76 0.30 0.28 0.27 0.24 0.28 0.39 0.45 0.37 0.32 0.30 0.25 0.22 0.26 0.26 0.23 0.21 0.23 0.36 0.43 0.45 0.51 0.50 0.46 0.51 0.44 0.38 0.39 0.37
3.91 3.69 3.37 3.52 3.03 3.27 3.44 3.04 1.92 1.03 0.58 0.33 0.31 0.36 0.31 0.31 0.39 0.48 0.65 0.83 0.93 1.28 1.62 1.33 0.59 0.33 0.40 0.34 0.38 0.45 0.35 0.38 0.52 0.47 0.33 0.39 0.37 0.31 0.30 0.29 0.29 0.27 0.24 0.28 0.37 0.44 0.62 0.58 0.56 0.59 0.53 0.52 0.54 0.47
5.18 4.79 4.73 4.59 4.78 4.07 3.05 1.92 1.11 0.62 0.38 0.35 0.43 0.32 0.36 0.37 0.44 0.52 0.59 0.72 1.16 1.38 0.89 0.47 0.40 0.41 0.36 0.38 0.44 0.48 0.41 0.50 0.62 0.73 0.64 0.61 0.52 0.52 0.51 0.33 0.25 0.23 0.27 0.31 0.37 0.47 0.67 0.62 0.58 0.61 0.56 0.58 0.65 0.65
4.58 4.25 5.70 5.80 4.94 4.22 2.86 1.52 0.74 0.52 0.37 0.43 0.39 0.40 0.49 0.50 0.51 0.61 0.63 0.84 1.03 0.63 0.47 0.51 0.55 0.55 0.44 0.48 0.59 0.64 0.66 0.59 0.57 0.60 0.62 0.69 0.65 0.59 0.64 0.53 0.40 0.36 0.36 0.48 0.57 0.63 0.63 0.64 0.70 0.77 0.65 0.74 0.77 0.76
4.08 4.65 4.85 4.71 4.28 3.57 2.28 1.01 0.54 0.45 0.43 0.49 0.42 0.46 0.48 0.45 0.48 0.53 0.69 0.68 0.56 0.58 0.57 0.59 0.63 0.74 0.68 0.67 0.63 0.65 0.73 0.70 0.57 0.53 0.56 0.57 0.56 0.58 0.65 0.65 0.69 0.77 0.70 0.77 0.81 0.81 0.76 0.77 0.75 0.68 0.67 0.62 0.56 0.72
3.84 4.78 4.97 4.45 3.16 2.28 1.57 1.22 0.88 0.57 0.62 0.53 0.46 0.38 0.30 0.33 0.44 0.52 0.48 0.41 0.50 0.53 0.48 0.55 0.59 0.59 0.49 0.47 0.52 0.63 0.79 0.80 0.68 0.58 0.66 0.79 0.54 0.48 0.56 0.63 0.71 0.86 0.88 0.85 0.79 0.76 0.67 0.71 0.75 0.75 0.64 0.62 0.57 0.52
5.53 5.97 4.45 3.78 2.29 1.22 0.81 0.64 0.51 0.42 0.40 0.35 0.30 0.26 0.25 0.33 0.41 0.48 0.38 0.40 0.44 0.48 0.50 0.53 0.53 0.65 0.72 0.56 0.53 0.59 0.70 0.98 0.91 0.76 0.68 0.90 0.87 0.67 0.55 0.52 0.55 0.64 0.78 0.80 0.66 0.59 0.60 0.67 0.72 0.67 0.70 0.60 0.55 0.49
4.99 3.24 2.15 1.12 0.71 0.32 0.25 0.26 0.26 0.18 0.16 0.24 0.28 0.26 0.28 0.41 0.52 0.42 0.36 0.43 0.42 0.48 0.52 0.55 0.58 0.52 0.48 0.67 0.79 0.69 0.70 0.93 1.07 0.79 0.60 0.83 1.11 1.17 0.86 0.69 0.55 0.55 0.75 0.80 0.78 0.60 0.60 0.57 0.57 0.58 0.75 0.76 0.57 0.59
3.86 2.46 1.12 0.34 0.20 0.20 0.19 0.15 0.14 0.17 0.22 0.23 0.23 0.23 0.37 0.55 0.34 0.29 0.39 0.44 0.47 0.44 0.54 0.62 0.73 0.71 0.62 0.54 0.59 0.67 0.88 1.14 1.35 1.10 0.96 0.90 0.88 1.00 1.17 1.10 0.81 0.69 0.94 0.97 0.85 0.67 0.58 0.52 0.46 0.35 0.44 0.54 0.57 0.47
1.91 0.70 0.42 0.41 0.35 0.30 0.33 0.26 0.24 0.23 0.23 0.20 0.24 0.31 0.44 0.33 0.21 0.25 0.31 0.38 0.46 0.47 0.56 0.69 0.74 0.80 0.83 0.84 0.85 0.85 0.89 0.97 0.99 0.89 0.76 0.71 0.76 0.77 0.90 0.92 0.92 0.95 0.94 0.77 0.71 0.71 0.63 0.53 0.48 0.43 0.44 0.47 0.57 0.57
0.57 0.30 0.24 0.31 0.30 0.27 0.26 0.22 0.17 0.14 0.14 0.15 0.15 0.13 0.14 0.14 0.24 0.30 0.31 0.34 0.34 0.39 0.43 0.50 0.45 0.60 0.71 0.77 0.84 0.97 1.03 1.02 0.89 0.75 0.63 0.57 0.50 0.55 0.74 0.81 0.85 0.84 0.81 0.86 0.85 0.75 0.71 0.68 0.68 0.69 0.66 0.66 0.71 0.78
0.16 0.12 0.12 0.16 0.20 0.22 0.20 0.22 0.22 0.25 0.29 0.28 0.20 0.14 0.14 0.22 0.33 0.37 0.32 0.29 0.30 0.32 0.40 0.46 0.47 0.49 0.54 0.55 0.59 0.62 0.74 0.87 1.11 1.12 0.92 0.69 0.78 1.00 1.01 0.94 0.91 0.94 0.82 0.73 0.95 1.10 0.91 0.86 0.90 0.84 0.75 0.73 0.68 0.66
0.03 0.03 0.04 0.07 0.09 0.12 0.15 0.15 0.14 0.15 0.21 0.21 0.21 0.24 0.24 0.28 0.31 0.34 0.27 0.28 0.32 0.32 0.33 0.31 0.34 0.43 0.52 0.57 0.69 0.68 0.64 0.69 0.77 0.75 0.81 0.89 0.87 0.88 0.95 0.93 0.92 0.90 0.89 0.82 0.72 0.71 0.69 0.62 0.59 0.61 0.59 0.63 0.62 0.57
0.04 0.06 0.04 0.05 0.12 0.14 0.12 0.09 0.07 0.06 0.07 0.11 0.16 0.21 0.24 0.25 0.23 0.18 0.17 0.15 0.15 0.20 0.34 0.42 0.43 0.46 0.64 0.80 0.90 1.06 1.24 1.03 0.77 0.78 0.87 0.90 0.83 0.82 0.79 0.80 0.87 0.86 0.83 0.79 0.75 0.76 0.65 0.66 0.72 0.68 0.69 0.73 0.73 0.65
0.18 0.14 0.13 0.13 0.17 0.19 0.16 0.11 0.11 0.11 0.11 0.09 0.10 0.14 0.15 0.14 0.12 0.12 0.14 0.22 0.35 0.39 0.40 0.47 0.57 0.71 0.79 0.89 0.95 0.95 0.92 0.86 0.94 0.97 0.99 0.95 0.93 0.86 0.80 0.82 0.81 0.77 0.68 0.68 0.75 0.78 0.76 0.71 0.74 0.70 0.68 0.68 0.71 0.66